Time,TemperatureF,DewpointF,PressureIn,WindDirection,WindDirectionDegrees,WindSpeedMPH,WindSpeedGustMPH,Humidity,HourlyPrecipIn,Conditions,Clouds,dailyrainin,SolarRadiationWatts/m^2,SoftwareType,DateUTC
2013-02-07 00:00:00,33.0,30.0,-100.00,South,169,5.0,10.0,90,-99.99,,,0.00,-0.200000,,2013-02-07 08:00:00,
2013-02-07 00:52:00,33.0,30.0,-100.00,South,169,5.0,10.0,90,-99.99,,,0.00,-0.200000,,2013-02-07 08:52:00,
2013-02-07 01:00:00,33.0,31.0,-100.00,ESE,110,5.0,9.0,92,-99.99,,,-99.99,-0.200000,,2013-02-07 09:00:00,
2013-02-07 01:52:00,33.0,31.0,-100.00,ESE,110,5.0,9.0,92,-99.99,,,-99.99,-0.200000,,2013-02-07 09:52:00,
2013-02-07 02:00:00,31.0,30.0,-100.00,SW,220,3.0,6.0,96,-99.99,,,0.00,-0.200000,,2013-02-07 10:00:00,
2013-02-07 02:52:00,31.0,30.0,-100.00,SW,220,3.0,6.0,96,-99.99,,,0.00,-0.200000,,2013-02-07 10:52:00,
2013-02-07 03:00:00,29.0,29.0,-100.00,SW,217,3.0,5.0,101,-99.99,,,0.01,-0.200000,,2013-02-07 11:00:00,
2013-02-07 03:52:00,29.0,29.0,-100.00,SW,217,3.0,5.0,101,-99.99,,,0.01,-0.200000,,2013-02-07 11:52:00,
2013-02-07 04:00:00,28.0,28.0,-100.00,WSW,249,3.0,4.0,100,-99.99,,,0.01,-0.200000,,2013-02-07 12:00:00,
2013-02-07 04:53:00,28.0,28.0,-100.00,WSW,249,3.0,4.0,100,-99.99,,,0.01,-0.200000,,2013-02-07 12:53:00,
2013-02-07 05:00:00,28.0,28.0,-100.00,SSE,147,2.0,5.0,100,-99.99,,,0.01,-0.200000,,2013-02-07 13:00:00,
2013-02-07 05:52:00,28.0,28.0,-100.00,SSE,147,2.0,5.0,100,-99.99,,,0.01,-0.200000,,2013-02-07 13:52:00,
2013-02-07 06:00:00,28.0,28.0,-100.00,SSW,196,2.0,3.0,100,-99.99,,,0.01,-0.200000,,2013-02-07 14:00:00,
2013-02-07 06:52:00,28.0,28.0,-100.00,SSW,196,2.0,3.0,100,-99.99,,,0.01,-0.200000,,2013-02-07 14:52:00,
2013-02-07 07:00:00,28.0,28.0,-100.00,South,180,1.0,2.0,100,-99.99,,,0.00,-0.200000,,2013-02-07 15:00:00,
2013-02-07 07:52:00,28.0,28.0,-100.00,South,180,1.0,2.0,100,-99.99,,,0.00,-0.200000,,2013-02-07 15:52:00,
2013-02-07 08:00:00,28.0,28.0,-100.00,SSW,208,1.0,2.0,100,-99.99,,,0.00,0.700000,,2013-02-07 16:00:00,
2013-02-07 08:52:00,28.0,28.0,-100.00,SSW,208,1.0,2.0,100,-99.99,,,0.00,0.700000,,2013-02-07 16:52:00,
2013-02-07 09:00:00,28.0,28.0,-100.00,West,277,1.0,2.0,100,-99.99,,,0.00,4.600000,,2013-02-07 17:00:00,
2013-02-07 09:52:00,28.0,28.0,-100.00,West,277,1.0,2.0,100,-99.99,,,0.00,4.600000,,2013-02-07 17:52:00,
2013-02-07 10:00:00,29.0,28.0,-100.00,SSW,199,1.0,3.0,99,-99.99,,,0.00,16.900000,,2013-02-07 18:00:00,
2013-02-07 10:52:00,29.0,28.0,-100.00,SSW,199,1.0,3.0,99,-99.99,,,0.00,16.900000,,2013-02-07 18:52:00,
2013-02-07 11:00:00,31.0,30.0,-100.00,SW,214,1.0,2.0,97,-99.99,,,0.01,26.600000,,2013-02-07 19:00:00,
2013-02-07 12:00:00,31.0,29.0,-100.00,ESE,118,0.0,2.0,93,-99.99,,,0.00,38.500000,,2013-02-07 20:00:00,
2013-02-07 12:52:00,31.0,29.0,-100.00,ESE,118,0.0,2.0,93,-99.99,,,0.00,38.500000,,2013-02-07 20:52:00,
2013-02-07 13:00:00,32.0,29.0,-100.00,NNW,343,1.0,2.0,89,-99.99,,,0.01,54.700001,,2013-02-07 21:00:00,
2013-02-07 13:52:00,32.0,29.0,-100.00,NNW,343,1.0,2.0,89,-99.99,,,0.01,54.700001,,2013-02-07 21:52:00,
2013-02-07 14:00:00,34.0,31.0,-100.00,SSE,164,0.0,1.0,89,-99.99,,,0.00,35.400002,,2013-02-07 22:00:00,
2013-02-07 15:00:00,30.0,27.0,-100.00,NNW,341,1.0,3.0,90,-99.99,,,0.00,27.000000,,2013-02-07 23:00:00,
2013-02-07 15:52:00,30.0,27.0,-100.00,NNW,341,1.0,3.0,90,-99.99,,,0.00,27.000000,,2013-02-07 23:52:00,
2013-02-07 16:00:00,30.0,28.0,-100.00,East,81,1.0,3.0,95,-99.99,,,0.01,14.700000,,2013-02-08 00:00:00,
2013-02-07 16:52:00,30.0,28.0,-100.00,East,81,1.0,3.0,95,-99.99,,,0.01,14.700000,,2013-02-08 00:52:00,
2013-02-07 17:00:00,28.0,27.0,-100.00,NNE,29,0.0,2.0,96,-99.99,,,0.00,5.100000,,2013-02-08 01:00:00,
2013-02-07 17:52:00,28.0,27.0,-100.00,NNE,29,0.0,2.0,96,-99.99,,,0.00,5.100000,,2013-02-08 01:52:00,
2013-02-07 18:00:00,27.0,27.0,-100.00,ENE,64,1.0,2.0,99,-99.99,,,-99.99,0.200000,,2013-02-08 02:00:00,
2013-02-07 18:52:00,27.0,27.0,-100.00,ENE,64,1.0,2.0,99,-99.99,,,-99.99,0.200000,,2013-02-08 02:52:00,
2013-02-07 19:00:00,27.0,27.0,-100.00,ENE,57,1.0,3.0,100,-99.99,,,0.01,-0.200000,,2013-02-08 03:00:00,
2013-02-07 19:52:00,27.0,27.0,-100.00,ENE,57,1.0,3.0,100,-99.99,,,0.01,-0.200000,,2013-02-08 03:52:00,
2013-02-07 20:00:00,28.0,28.0,-100.00,NNE,20,1.0,2.0,100,-99.99,,,0.01,-0.200000,,2013-02-08 04:00:00,
2013-02-07 20:52:00,28.0,28.0,-100.00,NNE,20,1.0,2.0,100,-99.99,,,0.01,-0.200000,,2013-02-08 04:52:00,
2013-02-07 21:00:00,28.0,28.0,-100.00,ENE,69,1.0,3.0,101,-99.99,,,0.00,-0.200000,,2013-02-08 05:00:00,
2013-02-07 21:52:00,28.0,28.0,-100.00,ENE,69,1.0,3.0,101,-99.99,,,0.00,-0.200000,,2013-02-08 05:52:00,
2013-02-07 22:00:00,26.0,26.0,-100.00,NE,46,1.0,2.0,101,-99.99,,,0.01,-0.200000,,2013-02-08 06:00:00,
2013-02-07 22:52:00,26.0,26.0,-100.00,NE,46,1.0,2.0,101,-99.99,,,0.01,-0.200000,,2013-02-08 06:52:00,
2013-02-07 23:00:00,26.0,26.0,-100.00,NE,40,1.0,2.0,100,-99.99,,,0.01,-0.200000,,2013-02-08 07:00:00,
2013-02-07 23:52:00,26.0,26.0,-100.00,NE,40,1.0,2.0,100,-99.99,,,0.01,-0.200000,,2013-02-08 07:52:00,